Wind_Speed
7 7 7 7 7 7 8 8 9 10 10 11 11 12 12 12 13 13 14 15 16 16 17 18 19 20 19 20 20 19 20 20 21 22 22 21 21 21 21 21 21 20 20
10 10 10 9 9 10 10 11 11 12 13 13 14 14 14 14 14 15 16 17 17 18 19 20 21 21 21 21 21 21 21 21 22 23 23 23 23 23 22 22 22 22 21
12 12 12 12 12 12 13 13 14 15 15 15 15 15 16 16 16 17 17 18 19 20 20 21 22 22 22 23 23 23 23 23 24 24 24 24 23 23 23 23 22 23 22
14 14 14 14 14 15 15 16 17 17 17 16 17 17 18 18 19 19 20 21 21 21 22 23 24 24 24 24 24 24 25 25 26 26 25 24 24 24 24 24 24 24 24
16 16 16 16 17 17 18 18 19 19 19 19 19 19 19 20 21 21 22 22 23 23 24 24 25 25 25 25 26 26 27 27 27 27 26 26 25 25 25 25 25 25 26
18 19 19 19 20 20 20 21 21 20 21 21 22 21 21 22 23 23 24 24 25 25 25 26 26 27 27 28 28 28 28 29 28 28 28 27 26 27 27 27 27 26 26
21 22 23 23 23 24 24 24 24 23 22 23 23 23 23 24 25 25 26 27 27 27 27 28 29 29 29 29 29 29 30 30 30 30 29 29 28 28 28 28 28 28 27
24 24 25 25 26 27 27 26 26 26 25 24 25 25 26 26 27 27 28 28 28 29 29 29 29 29 29 29 30 30 30 31 31 31 31 30 29 28 29 29 29 29 29
27 27 27 27 28 28 28 28 28 27 27 27 27 27 28 28 28 29 29 30 29 29 30 30 30 30 30 30 31 32 31 31 32 33 32 31 31 31 31 31 30 31 30
29 28 29 30 31 30 29 29 29 29 30 30 30 30 30 30 31 32 32 31 31 31 31 32 32 31 32 32 33 33 33 33 33 33 33 33 33 33 32 32 32 32 32
31 31 31 32 32 32 31 31 32 32 32 32 33 33 33 33 33 33 33 34 34 33 33 33 34 34 34 34 35 35 36 35 35 35 35 34 34 34 34 34 34 34 34
34 34 34 35 34 34 33 33 34 34 35 35 35 35 35 35 36 36 36 36 36 35 35 34 35 35 35 35 36 36 37 37 37 36 35 36 35 35 35 34 34 34 34
36 36 35 36 36 36 36 36 36 37 37 37 37 37 37 37 38 38 38 38 37 37 36 36 36 36 36 37 37 37 38 38 37 36 36 35 35 35 35 34 34 35 35
36 37 37 37 37 37 37 37 38 38 38 38 38 38 38 38 39 39 40 39 38 38 37 37 37 38 38 38 38 38 38 37 37 37 37 36 35 35 35 35 35 35 35
37 37 37 37 38 37 37 38 38 38 38 38 38 39 39 40 40 40 40 39 39 39 39 39 39 39 39 39 39 38 37 37 37 37 37 37 36 36 35 35 36 36 35
37 37 37 37 37 37 38 38 37 37 38 39 39 40 40 40 40 39 39 40 39 40 39 39 39 39 39 39 38 38 37 37 38 38 38 37 36 35 35 36 36 35 35
37 37 37 36 36 36 37 37 37 37 38 39 40 40 41 41 41 40 39 40 40 40 40 40 39 39 40 39 39 39 39 39 39 39 38 37 37 36 37 37 36 35 35
37 37 37 36 36 36 36 36 37 37 38 39 40 40 40 40 41 40 40 39 39 40 41 41 40 40 40 40 40 39 39 39 39 39 38 38 37 37 37 37 36 36 37
36 36 36 36 35 35 36 36 37 38 38 39 38 38 38 39 39 39 39 40 39 39 40 40 40 40 40 39 39 39 39 38 38 38 38 38 37 37 37 37 37 37 37
36 35 34 34 34 35 36 36 37 37 37 36 36 37 37 37 37 37 38 39 39 38 39 39 39 39 39 39 39 39 39 39 38 38 38 38 37 37 37 37 37 37 37
34 34 33 33 33 34 34 35 35 35 35 35 35 36 36 36 36 36 37 37 37 37 38 38 38 38 39 39 39 39 39 39 38 38 38 37 36 36 36 36 36 36 35
32 30 30 31 31 31 32 33 33 33 33 33 34 34 35 35 36 36 36 36 35 35 35 36 37 38 38 38 38 37 38 38 38 37 36 36 36 35 35 34 34 34 34
29 29 30 30 30 30 30 31 32 32 32 33 33 34 34 34 34 34 34 34 34 34 35 35 36 36 37 37 37 36 36 36 35 34 34 34 34 33 33 32 33 32 31
28 28 28 29 29 29 29 30 30 30 30 31 31 31 32 32 33 33 33 33 33 33 33 34 34 34 35 35 35 34 34 34 33 32 33 33 32 31 31 31 31 30 30
26 27 27 27 28 28 28 28 29 28 29 29 29 29 30 30 31 32 32 32 32 31 32 32 33 33 34 34 33 33 33 31 30 30 31 31 30 30 30 30 30 30 30
24 24 25 26 26 26 26 26 26 26 27 27 28 28 29 29 30 31 31 30 30 31 32 32 32 32 32 32 31 32 31 31 30 30 30 29 29 29 29 29 30 30 30
Wind_Direction
266 273 282 284 282 274 276 281 284 287 290 288 285 287 291 290 285 283 288 291 293 295 296 297 299 301 303 305 305 305 307 309 308 306 304 303 303 304 303 301 301 297 297
274 274 276 276 275 275 275 279 279 282 287 289 287 285 288 289 286 284 289 292 292 295 296 296 296 298 301 302 302 302 305 306 307 306 304 302 302 302 301 299 298 298 296
277 275 274 274 274 275 275 276 278 281 283 287 287 285 286 287 286 284 287 291 292 294 296 296 295 297 301 300 299 300 300 301 303 304 303 301 302 301 299 298 298 298 296
273 275 274 274 275 275 276 277 278 281 282 283 285 285 285 285 286 286 286 290 290 292 293 293 294 295 297 297 298 298 298 299 300 301 302 302 301 298 298 297 298 297 295
274 276 277 273 275 277 278 279 279 281 283 284 284 284 284 286 287 286 286 286 289 290 292 293 294 295 296 296 297 297 297 297 298 299 299 299 298 296 296 295 296 297 295
273 274 276 275 276 278 277 282 282 281 282 285 283 285 285 286 286 287 287 286 288 289 291 292 293 293 294 295 294 296 296 295 296 297 297 296 295 294 294 294 296 296 295
272 273 274 274 274 275 277 279 283 284 281 283 285 285 285 287 289 287 286 287 288 290 292 293 292 293 293 294 293 295 295 294 295 296 297 296 294 293 293 293 294 295 294
275 276 277 276 276 275 276 277 279 280 282 283 284 284 285 285 287 288 288 288 289 289 291 294 294 293 294 293 292 292 295 295 294 295 296 296 293 292 293 292 293 293 293
274 275 276 276 276 275 274 276 278 281 284 285 285 284 285 285 286 287 287 287 289 290 292 294 295 295 295 295 294 295 295 295 294 295 295 295 293 292 292 292 292 292 293
274 272 275 276 276 274 274 276 279 281 282 283 284 283 284 285 286 286 287 287 288 289 290 291 292 293 293 294 295 294 294 293 293 293 293 293 291 291 291 291 291 291 292
274 272 274 275 275 274 275 277 278 279 280 281 282 281 282 283 284 286 286 287 288 289 290 290 291 291 292 293 293 294 294 294 293 293 294 293 292 291 290 290 290 291 292
273 273 274 275 276 277 277 278 279 278 278 279 280 280 280 281 284 286 287 288 288 289 290 291 291 290 290 291 293 293 293 294 294 294 293 293 291 290 290 290 290 290 291
273 274 276 276 276 278 279 279 280 279 278 279 279 280 280 281 282 284 286 287 288 288 289 290 290 290 290 292 292 292 293 293 293 293 293 292 290 289 288 288 288 290 291
272 273 274 275 276 277 278 279 281 281 280 281 281 282 282 282 283 283 283 284 286 287 289 289 289 289 290 291 291 292 292 292 292 292 291 291 290 289 288 288 288 289 291
272 273 274 274 275 276 277 279 279 280 280 281 281 282 283 283 284 284 283 284 285 287 288 289 290 290 289 290 291 291 292 292 292 291 291 291 290 289 288 287 288 289 290
271 272 273 274 275 275 276 277 277 279 281 280 281 282 282 283 284 283 284 285 286 287 288 288 288 288 289 290 292 293 293 293 292 292 291 291 289 288 287 287 288 288 290
272 272 272 273 274 275 276 277 278 278 279 280 281 282 282 282 282 283 284 284 285 286 287 287 287 288 289 290 291 292 292 292 292 291 291 290 289 287 286 286 286 288 290
272 273 273 273 274 275 275 276 277 278 279 280 281 282 282 282 283 283 283 284 284 284 286 286 286 287 288 289 290 290 291 291 291 291 290 289 288 286 286 286 288 290 291
272 273 272 273 273 274 276 277 278 279 280 280 281 281 282 282 283 283 284 285 285 285 285 285 286 287 288 289 290 290 290 291 291 290 290 289 287 286 286 287 288 290 291
272 273 273 273 274 276 278 278 279 280 281 281 281 282 282 283 284 285 286 285 284 284 285 286 286 287 288 289 289 289 289 290 290 290 290 288 287 286 286 287 288 289 290
275 276 275 275 276 278 279 281 281 281 282 280 280 282 284 284 284 285 286 286 285 285 286 287 287 287 288 289 289 289 289 289 289 290 289 288 287 287 287 288 288 289 289
275 276 276 278 278 279 281 283 283 282 281 280 280 282 283 284 284 285 287 288 287 286 287 288 288 288 289 289 289 290 290 290 290 289 288 287 287 286 287 287 288 288 289
275 276 277 278 279 280 282 284 284 282 282 281 282 283 284 285 286 288 289 289 288 288 288 288 288 288 290 291 291 292 292 291 289 288 287 287 286 286 287 287 288 289 290
276 277 277 278 279 281 282 283 285 284 284 285 286 285 285 286 287 288 289 290 290 290 290 290 290 290 291 292 292 292 292 290 288 288 288 287 286 286 287 288 289 290 290
277 278 279 280 280 281 283 284 286 287 288 288 288 288 288 289 289 288 290 290 291 292 292 292 292 292 292 293 293 293 294 293 290 289 288 288 288 288 288 288 289 289 290
279 280 281 281 280 282 283 284 286 288 289 289 289 291 292 292 293 293 292 292 291 292 293 293 293 294 294 294 294 294 293 293 290 289 289 290 290 289 288 288 289 290 291
Height
5889 5889 5889 5888 5888 5888 5887 5887 5887 5886 5886 5885 5884 5883 5882 5881 5880 5879 5879 5878 5877 5876 5875 5873 5872 5870 5869 5867 5865 5864 5861 5859 5857 5855 5852 5850 5848 5845 5843 5841 5838 5836 5835
5886 5886 5886 5885 5885 5885 5884 5884 5884 5883 5882 5881 5881 5880 5879 5878 5877 5876 5875 5874 5873 5872 5870 5869 5867 5866 5864 5862 5860 5858 5856 5854 5852 5850 5847 5845 5842 5840 5838 5835 5833 5831 5829
5883 5883 5883 5882 5882 5881 5881 5880 5880 5879 5878 5877 5877 5876 5875 5874 5873 5872 5871 5870 5869 5867 5866 5864 5862 5861 5859 5857 5855 5853 5851 5849 5847 5844 5842 5839 5837 5835 5832 5830 5827 5825 5823
5879 5879 5879 5879 5878 5877 5877 5876 5876 5875 5874 5873 5872 5871 5871 5870 5869 5867 5866 5865 5864 5862 5861 5859 5857 5855 5853 5851 5849 5847 5845 5843 5841 5838 5836 5834 5831 5829 5826 5824 5821 5819 5817
5875 5875 5875 5874 5874 5873 5873 5872 5871 5870 5869 5868 5867 5866 5866 5865 5864 5862 5861 5859 5858 5856 5855 5853 5851 5849 5847 5845 5843 5841 5839 5837 5834 5832 5830 5827 5825 5822 5820 5817 5815 5813 5811
5870 5870 5869 5869 5869 5868 5868 5867 5866 5864 5864 5863 5862 5861 5860 5859 5858 5856 5855 5853 5851 5850 5848 5846 5844 5842 5840 5838 5836 5834 5832 5830 5827 5825 5823 5820 5818 5815 5813 5810 5808 5806 5804
5864 5864 5863 5863 5863 5862 5862 5861 5860 5859 5858 5857 5856 5855 5854 5853 5851 5850 5848 5846 5845 5843 5841 5839 5837 5835 5833 5831 5828 5826 5824 5821 5819 5817 5815 5813 5810 5808 5805 5803 5800 5798 5796
5857 5857 5856 5856 5856 5856 5855 5855 5853 5852 5851 5850 5850 5849 5848 5846 5845 5843 5842 5840 5838 5836 5834 5831 5829 5827 5825 5823 5820 5818 5815 5813 5811 5809 5806 5804 5802 5799 5797 5795 5792 5790 5788
5850 5850 5850 5849 5848 5848 5848 5847 5846 5845 5844 5844 5843 5841 5840 5839 5837 5836 5834 5832 5830 5828 5826 5824 5821 5819 5817 5814 5812 5810 5808 5805 5802 5799 5797 5795 5793 5791 5788 5786 5783 5781 5779
5843 5843 5842 5841 5840 5840 5839 5839 5839 5838 5837 5836 5835 5834 5833 5831 5829 5827 5825 5824 5822 5820 5818 5815 5813 5811 5808 5806 5804 5801 5799 5797 5794 5791 5788 5786 5783 5781 5779 5777 5774 5772 5769
5834 5834 5834 5833 5832 5831 5831 5831 5830 5830 5829 5828 5827 5825 5824 5822 5820 5818 5816 5815 5813 5811 5809 5807 5804 5802 5799 5797 5794 5792 5790 5787 5784 5782 5779 5777 5774 5771 5769 5767 5765 5762 5760
5826 5825 5825 5823 5822 5821 5821 5821 5821 5820 5819 5819 5817 5816 5814 5812 5810 5808 5807 5805 5803 5801 5799 5797 5795 5792 5790 5787 5785 5782 5779 5777 5774 5771 5769 5766 5764 5762 5759 5757 5755 5752 5750
5816 5816 5815 5813 5813 5812 5812 5811 5811 5810 5809 5808 5807 5805 5804 5802 5801 5799 5797 5794 5792 5790 5789 5787 5785 5782 5780 5777 5775 5772 5769 5766 5763 5761 5759 5756 5753 5751 5749 5747 5744 5742 5739
5806 5806 5805 5804 5803 5802 5802 5801 5800 5799 5798 5797 5796 5794 5793 5792 5790 5788 5786 5784 5782 5780 5778 5776 5774 5771 5769 5767 5764 5761 5758 5755 5753 5750 5748 5746 5743 5741 5738 5736 5734 5732 5729
5796 5795 5794 5793 5792 5792 5791 5790 5789 5788 5786 5785 5784 5783 5782 5781 5779 5777 5774 5772 5771 5769 5767 5765 5763 5760 5758 5755 5753 5750 5747 5744 5741 5739 5737 5735 5732 5730 5727 5725 5723 5721 5719
5784 5784 5783 5782 5781 5781 5780 5779 5777 5776 5775 5774 5773 5772 5770 5769 5767 5765 5763 5761 5759 5757 5755 5753 5751 5749 5747 5744 5741 5739 5736 5733 5730 5728 5726 5723 5721 5718 5716 5714 5712 5710 5707
5773 5772 5772 5771 5770 5769 5768 5767 5766 5765 5763 5762 5761 5760 5758 5757 5755 5753 5751 5750 5748 5746 5744 5742 5740 5738 5735 5733 5730 5728 5725 5722 5719 5717 5714 5712 5709 5707 5705 5702 5700 5698 5696
5761 5761 5760 5759 5759 5757 5756 5755 5754 5753 5752 5750 5749 5747 5746 5744 5743 5741 5740 5738 5736 5734 5732 5730 5728 5726 5724 5721 5719 5716 5714 5711 5708 5706 5703 5701 5698 5696 5694 5691 5689 5686 5685
5750 5749 5748 5747 5747 5746 5744 5743 5742 5741 5740 5738 5737 5736 5734 5732 5731 5730 5728 5726 5724 5722 5720 5718 5716 5714 5712 5709 5707 5704 5702 5699 5696 5694 5691 5689 5687 5685 5682 5680 5678 5676 5673
5738 5737 5736 5736 5735 5734 5733 5732 5731 5729 5727 5726 5725 5724 5723 5721 5720 5718 5716 5714 5712 5710 5708 5706 5704 5702 5700 5697 5695 5692 5690 5687 5685 5682 5680 5677 5675 5673 5671 5669 5667 5665 5663
5727 5726 5725 5725 5724 5723 5722 5721 5719 5717 5716 5715 5714 5713 5711 5710 5708 5706 5704 5702 5700 5699 5697 5694 5692 5690 5688 5685 5683 5680 5678 5675 5673 5670 5668 5666 5664 5662 5660 5658 5656 5654 5652
5716 5715 5715 5715 5714 5713 5712 5710 5708 5707 5705 5704 5703 5702 5701 5699 5697 5695 5693 5691 5689 5687 5685 5683 5681 5678 5676 5673 5671 5668 5666 5663 5661 5659 5656 5654 5653 5651 5649 5647 5645 5643 5640
5708 5707 5706 5706 5705 5704 5702 5701 5699 5697 5695 5694 5693 5692 5690 5688 5687 5685 5683 5680 5678 5676 5674 5672 5669 5667 5665 5662 5659 5657 5655 5652 5650 5647 5645 5643 5641 5640 5638 5636 5634 5632 5630
5699 5698 5698 5697 5696 5695 5693 5692 5690 5688 5686 5684 5683 5682 5680 5678 5676 5674 5672 5670 5668 5666 5664 5661 5659 5657 5654 5652 5649 5646 5643 5641 5638 5636 5635 5633 5631 5629 5628 5626 5624 5622 5620
5691 5690 5689 5688 5687 5686 5685 5683 5681 5680 5678 5676 5674 5673 5671 5669 5667 5665 5663 5661 5659 5656 5654 5652 5649 5647 5644 5641 5639 5636 5633 5630 5628 5626 5625 5623 5621 5619 5618 5616 5615 5613 5611
5683 5682 5682 5680 5679 5678 5676 5675 5674 5672 5670 5668 5666 5664 5662 5660 5658 5656 5654 5651 5649 5647 5645 5642 5640 5637 5634 5632 5629 5626 5623 5621 5619 5617 5615 5613 5611 5610 5608 5607 5605 5603 5601